Location: Edinburgh
(55.9500°N, 3.1600°W)
Time: 00:57:04
(UTC+01:00)

Envisat - Pass Details

Date: 25 February 2019
Orbit: 764 x 766 km, 98.1° (Epoch: 22 October)

Event Time Altitude Azimuth Distance (km) Brightness Sun altitude
Rises 06:06:04 0° 27° (NNE) 3,246 6.6 -10.4°
Reaches altitude 10° 06:09:58 10° 57° (ENE) 2,313 6.4 -9.8°
Maximum altitude 06:12:00 12° 81° (E) 2,154 6.8 -9.5°
Drops below altitude 10° 06:14:01 10° 105° (ESE) 2,306 7.0 -9.2°
Sets 06:17:53 0° 135° (SE) 3,226 7.1 -8.7°
